Voltar ao catálogo

MMS 2

AtivoCiênciaHEO
NORAD 40483·PAYLOAD·🇺🇸 United States

Lançado Mar 13, 2015 de Cape Canaveral Space Force Station

Loading…

Próximas Passagens (próximas 24 horas)

TLE

AtualizadoSource: Space-Track

Época: Sep 14, 2026, 16:00 UTC

1 40483U 15011B   26257.66671296 -.00001854  00000-0  00000-0 0  9991
2 40483  72.9574 347.7727 8259704 169.3948  66.2148  0.28336106  1419

Acompanhe MMS 2 em tempo real com AllMySat

Download on the App Store